Location: Bacea
(45.9500°N, 22.6667°E)
Time: 12:14:03
(UTC+00:00)

Cosmos 489 Rocket - Pass Details

Date: 28 May 2022
Orbit: 952 x 983 km, 74.0° (Epoch: 03 July)

Event Time Altitude Azimuth Distance (km) Brightness Sun altitude
Rises 00:44:10 0° 343° (NNW) 3,644 8.1 -15.8°
Reaches altitude 10° 00:47:02 10° 354° (N) 2,698 7.6 -15.5°
Maximum altitude 00:52:29 31° 55° (NE) 1,630 6.4 -14.9°
Drops below altitude 10° 00:57:57 10° 116° (ESE) 2,701 6.9 -14.4°
Sets 01:00:48 0° 127° (SE) 3,649 7.5 -14.1°
